Voltar ao catálogo

CZ-6A DEB

AtivoSSO
NORAD 56602·DEBRIS·🇨🇳 China

Lançado Nov 11, 2022 de Taiyuan Satellite Launch Center

Loading…

Próximas Passagens (próximas 24 horas)

TLE

AtualizadoSource: Space-Track

Época: Sep 14, 2026, 12:38 UTC

1 56602U 22151AEA 26257.52650982  .00004366  00000-0  15365-2 0  9990
2 56602  98.7803 280.3033 0028207 351.4516   8.6184 14.35160616184787

Acompanhe CZ-6A DEB em tempo real com AllMySat

Download on the App Store